Wind_Speed
23 23 22 23 24 25 25 24 22 20 18 17 16 17 16 14 13 12 11 12 12 12 12 11 10 8 6 5 5 6 7 7 7 8 8 9 9 9 9 9 8 9 12 13 13 13 13 13 13 13 13 13 12 11 10 9 9 10 9 8 7 6 6 6 6 6 6 6 6 5 5 5 6 6 7 8 9 10 11 12 14 15 16 17 17
22 23 24 25 25 26 27 25 23 21 20 18 18 19 18 17 15 14 13 13 14 13 12 12 11 9 7 5 5 7 8 8 8 9 9 9 9 9 9 9 9 11 12 14 14 13 13 13 13 13 13 13 12 10 10 10 10 9 8 8 7 7 7 7 6 7 7 7 6 6 7 7 7 7 8 9 10 12 13 15 16 17 18 19 19
22 24 26 26 26 27 27 25 23 23 21 20 20 20 20 19 17 16 15 15 15 14 13 13 12 10 8 6 6 8 9 10 9 10 10 11 11 10 10 11 11 12 13 14 14 13 12 12 12 12 11 11 10 9 10 11 11 10 10 9 9 8 8 7 7 8 8 7 7 8 8 8 8 8 9 10 11 13 15 16 18 19 20 21 21
22 24 25 25 26 28 27 26 25 25 24 22 22 23 23 23 22 20 18 18 17 15 14 14 13 12 10 8 7 9 11 11 10 10 11 12 12 12 12 12 12 13 14 14 14 14 13 12 12 11 10 10 9 9 10 11 11 11 11 10 10 9 9 9 9 9 9 9 8 9 9 9 9 9 10 10 12 13 15 17 19 20 21 22 22
18 21 22 24 27 29 29 27 26 27 26 26 26 27 28 27 26 24 22 21 19 16 15 15 15 14 11 9 8 9 11 11 11 11 12 12 12 12 12 12 12 13 13 14 15 15 15 14 14 13 12 11 10 10 10 10 10 10 10 9 9 9 9 9 9 9 9 9 10 9 9 9 10 11 12 12 13 15 16 18 19 20 21 22 23
17 19 21 25 28 29 29 27 27 27 28 29 30 31 30 30 29 27 25 24 20 17 16 16 15 15 12 9 8 9 10 11 10 10 11 11 11 11 11 11 11 12 13 14 15 17 17 17 16 15 14 13 11 11 10 9 9 8 8 8 8 8 8 8 8 9 9 10 10 10 11 12 13 14 15 16 17 18 19 20 21 21 22 23 24
17 18 20 23 25 26 26 27 27 27 28 30 32 33 33 31 30 28 28 26 21 18 17 16 15 14 11 9 9 10 11 11 10 11 11 11 10 10 10 10 11 11 13 13 14 15 16 16 16 14 13 12 12 11 10 8 7 7 7 7 8 8 9 9 10 11 11 11 11 12 14 15 16 17 17 18 19 20 21 22 23 23 23 24 25
18 19 21 23 24 25 27 27 27 28 30 32 33 33 34 34 32 31 30 27 22 19 18 16 15 13 11 10 11 11 12 11 11 11 11 11 11 11 11 11 11 11 12 13 13 13 13 13 13 13 12 12 10 9 8 7 6 6 7 8 9 10 11 12 13 14 14 14 14 15 17 18 19 20 20 21 21 22 23 24 25 25 24 25 25
18 18 17 17 20 23 26 29 29 30 31 31 30 32 35 35 34 33 32 27 21 19 18 16 14 13 11 11 12 13 13 12 12 12 11 11 12 12 12 12 12 11 11 12 12 12 12 11 11 10 10 9 8 7 6 7 7 9 10 11 12 13 14 15 16 16 17 17 17 18 20 20 21 22 23 23 23 24 25 26 27 28 28 28 28
15 13 9 8 11 14 18 23 24 24 23 22 22 26 29 28 27 28 27 23 18 17 17 15 14 12 12 13 14 14 14 13 13 13 13 13 13 13 13 13 12 12 11 11 10 10 10 9 9 8 8 8 8 8 9 10 11 12 13 14 15 16 17 18 18 18 19 19 20 21 22 22 23 24 25 25 25 26 27 28 29 30 31 31 31
8 7 6 5 6 8 11 15 15 16 16 14 14 18 20 20 21 23 22 19 16 16 17 16 14 14 14 15 16 16 16 15 15 15 15 15 15 15 14 14 14 13 13 12 11 11 11 10 10 10 10 10 11 12 13 14 15 16 16 17 18 19 20 20 21 21 22 22 23 24 25 26 26 27 27 27 28 28 29 31 32 32 32 32 32
3 3 3 2 3 5 8 11 13 13 14 12 11 13 16 17 17 18 19 17 16 16 17 16 15 14 15 16 17 17 17 17 17 16 16 16 17 16 16 16 16 16 15 14 14 14 14 14 14 14 14 14 15 16 17 17 18 19 19 20 21 22 22 23 23 24 25 25 26 27 28 29 29 29 30 30 30 31 33 34 34 34 33 32 32
3 3 3 3 3 4 6 8 10 11 11 12 11 12 15 16 16 17 17 15 16 16 17 18 18 16 16 16 17 18 19 19 18 18 18 19 19 19 19 19 19 19 18 18 18 18 18 18 18 18 19 19 19 20 21 21 22 22 23 23 24 25 25 25 26 27 27 28 29 29 30 30 31 32 32 33 33 34 35 36 37 37 36 34 34
6 6 5 5 4 4 4 7 8 8 9 11 11 13 15 16 17 17 15 14 15 16 16 18 19 19 18 18 18 19 20 20 20 20 21 21 21 22 22 22 22 22 22 22 22 22 22 22 23 23 23 23 23 24 24 25 26 26 27 27 27 27 28 28 29 30 30 31 32 32 32 33 34 35 35 35 34 34 35 36 37 38 37 37 37
8 8 7 7 5 5 4 6 7 8 9 11 13 15 16 17 17 16 14 13 15 16 16 17 18 19 20 20 21 21 21 21 21 21 22 22 23 23 24 24 25 25 25 25 25 26 26 26 26 27 27 27 26 26 27 28 29 30 30 30 30 30 31 31 31 32 33 34 35 35 35 36 37 38 38 37 35 35 36 37 37 38 39 39 39
8 8 8 8 6 5 5 5 7 7 9 11 14 15 16 16 17 16 15 15 17 18 18 18 18 19 20 21 21 22 22 23 23 23 23 24 25 26 26 27 28 28 28 28 28 29 29 30 30 30 30 30 29 30 31 32 33 33 33 32 32 33 33 32 33 34 35 36 37 37 37 37 38 38 38 38 37 37 38 39 39 40 40 40 42
7 7 6 6 6 6 5 5 6 7 8 10 12 13 14 15 16 17 17 19 21 20 19 20 20 20 20 20 20 21 22 22 23 24 25 26 27 28 29 30 30 30 30 30 31 32 32 33 34 33 33 33 33 33 34 35 35 35 34 34 34 34 33 33 34 35 35 37 38 39 39 39 39 39 39 40 39 39 39 40 40 41 41 42 43
6 6 6 6 7 7 7 7 7 7 8 9 11 13 14 16 17 18 18 21 21 19 19 22 23 23 22 21 20 21 22 22 23 24 25 26 28 29 30 31 31 32 32 33 33 35 36 37 36 35 35 35 34 35 35 36 37 37 35 35 36 35 34 34 35 36 37 38 40 40 40 40 40 40 40 40 40 40 41 41 40 41 44 44 40
6 6 6 7 7 8 9 9 9 9 9 10 12 13 15 16 18 19 19 20 21 19 20 23 24 25 25 23 23 23 24 25 26 26 27 28 29 30 31 32 32 33 33 34 34 36 39 39 36 35 35 35 35 36 37 38 39 39 37 37 38 37 35 36 37 38 39 40 41 42 42 41 41 41 41 42 42 42 43 42 39 39 41 38 30
8 8 8 7 7 8 9 10 11 12 13 13 14 15 16 16 17 18 19 20 21 20 21 22 24 25 26 26 26 26 27 28 29 30 31 31 32 33 34 35 35 35 35 35 35 36 39 38 35 32 33 34 35 36 38 39 40 41 40 40 40 38 37 38 39 40 41 43 43 44 44 44 44 44 44 45 45 43 43 43 41 39 37 30 22
10 10 10 9 9 10 10 11 13 14 16 17 18 19 19 19 19 19 20 21 22 22 22 23 24 26 27 27 28 28 29 30 31 33 34 35 36 36 37 38 39 39 38 38 38 38 39 40 39 35 34 35 36 37 39 40 40 42 42 42 41 41 41 41 41 42 43 44 45 45 45 45 46 45 45 45 45 43 42 43 40 35 30 23 19
14 14 13 13 12 11 12 13 14 16 17 18 19 20 21 22 22 22 23 23 24 24 25 25 26 27 28 29 30 31 32 33 34 35 36 38 39 39 39 40 41 42 42 42 42 42 41 42 43 41 39 38 39 40 41 42 43 44 44 43 44 44 43 43 42 42 42 43 44 44 44 45 45 45 45 44 44 43 41 39 36 29 23 19 19
18 17 16 15 15 14 16 17 18 18 19 19 20 21 22 23 24 25 25 26 26 27 28 28 29 30 31 32 33 35 36 37 37 38 39 40 42 43 43 43 44 45 45 45 45 45 45 45 45 44 44 44 43 43 44 44 45 45 44 44 44 44 44 44 43 42 42 42 43 44 43 43 42 43 44 44 43 41 36 30 25 22 19 18 20
20 20 19 19 19 19 20 21 22 22 22 23 24 25 25 26 27 28 29 30 30 31 32 33 34 34 35 36 37 38 40 41 42 42 43 44 45 46 47 48 48 48 49 49 49 49 49 49 49 49 49 49 48 47 47 46 46 46 45 45 45 45 45 44 44 44 44 45 45 44 42 40 40 41 42 40 38 34 28 21 19 19 19 19 21
21 22 22 22 23 23 24 24 25 25 26 26 27 27 28 29 30 30 31 32 33 33 34 35 36 37 38 39 40 41 42 43 44 45 46 47 48 49 50 51 52 53 53 54 54 54 54 54 54 54 53 52 51 51 50 49 48 48 47 46 45 45 44 45 45 46 45 46 46 45 42 41 40 40 40 38 32 25 20 19 20 21 20 22 25
21 22 23 24 25 26 26 26 27 27 28 28 28 29 30 30 31 32 33 34 35 36 37 38 40 41 42 43 44 44 45 46 47 48 49 50 51 51 52 53 54 55 56 57 57 58 58 58 57 57 56 55 54 53 52 52 51 50 49 48 47 45 45 46 46 46 46 46 46 45 46 47 44 40 39 34 25 20 20 21 22 22 23 25 27
21 22 23 24 25 26 27 27 28 29 30 31 32 32 33 34 35 36 37 38 39 40 41 42 43 44 45 45 46 46 46 47 47 48 49 51 51 52 52 53 53 54 55 56 57 58 58 58 58 58 57 57 56 55 54 53 53 52 52 50 48 46 46 46 46 45 45 44 43 43 44 45 42 38 35 29 22 20 22 22 22 24 26 28 30
23 24 25 26 27 28 29 30 31 32 33 34 35 35 36 37 38 39 40 41 42 42 43 43 44 44 45 45 45 45 45 44 44 45 46 47 48 49 50 50 50 51 51 52 53 54 55 55 55 55 55 55 55 54 53 53 52 52 52 50 48 47 46 46 46 44 43 42 43 41 41 39 34 31 29 26 22 22 23 23 25 27 28 30 32
25 27 28 28 29 30 31 32 33 34 35 36 36 37 38 39 39 40 41 41 41 42 42 42 42 42 42 42 42 42 40 39 39 39 39 40 42 43 43 44 45 46 47 48 49 50 50 50 50 50 50 51 51 51 51 50 51 51 51 50 49 47 45 46 45 44 42 42 41 40 39 35 30 30 29 25 23 23 24 25 27 28 30 31 31
27 28 29 30 31 32 33 34 34 35 35 35 35 36 37 37 37 37 36 37 38 38 38 38 37 37 37 36 36 36 36 35 34 34 34 35 36 36 37 37 38 39 41 42 43 44 44 44 44 44 44 44 44 44 45 46 47 48 49 49 48 46 45 45 44 42 41 38 37 39 39 37 34 33 30 25 24 25 26 28 29 29 30 30 30
27 28 29 30 30 31 31 31 31 31 31 31 31 31 31 32 33 32 31 30 31 31 32 32 32 31 31 31 31 32 33 33 34 34 34 34 35 35 36 37 37 38 39 39 40 40 40 40 40 39 39 39 38 39 39 40 42 44 45 47 46 45 43 41 41 40 37 34 36 40 39 34 31 30 28 25 25 26 27 29 29 29 29 29 30
24 25 26 26 26 26 27 26 26 27 27 27 27 27 25 24 25 27 27 27 27 27 26 27 27 28 29 29 30 31 32 33 34 35 35 36 36 36 37 37 37 38 38 39 40 40 40 40 40 39 38 37 36 36 36 37 38 39 40 41 41 41 39 38 38 37 33 34 37 36 31 27 26 25 24 23 24 25 27 29 29 28 28 29 30
20 21 21 22 22 22 22 22 22 22 23 23 23 22 21 19 19 20 22 24 25 25 24 24 25 26 28 29 31 31 32 32 33 33 33 33 33 33 33 32 32 33 34 36 37 38 38 39 39 38 37 35 34 34 34 34 35 35 35 35 35 34 33 32 33 33 33 35 37 32 26 21 21 21 20 21 24 27 28 28 27 27 28 29 28
17 18 18 19 19 19 19 19 19 19 19 19 19 18 18 17 17 17 18 19 21 22 24 24 25 24 25 26 27 26 26 26 26 25 25 25 25 26 26 27 28 29 30 31 33 34 35 36 36 35 33 32 32 32 32 32 33 33 33 33 32 30 29 29 30 31 33 35 33 26 19 16 18 20 21 24 26 27 27 26 26 27 27 26 24
16 16 16 16 16 16 16 16 16 16 16 16 16 15 15 15 16 16 17 18 18 19 20 21 21 19 19 19 19 19 19 19 19 19 20 20 21 22 23 24 25 26 27 29 30 32 32 32 32 31 30 29 30 29 29 31 32 32 32 32 31 30 29 27 24 24 26 24 20 17 16 18 21 23 25 26 26 25 25 26 26 25 23 21 21
15 15 15 14 14 14 14 14 14 14 14 14 13 13 14 14 15 16 16 16 16 15 15 16 16 15 14 14 14 15 15 16 17 18 20 21 21 21 21 22 22 23 24 25 26 28 29 29 28 28 28 28 28 28 28 29 29 28 28 27 26 26 26 24 22 22 20 18 17 18 19 21 23 24 24 24 23 24 24 24 23 21 20 19 18
13 13 13 12 12 13 12 12 11 12 12 12 12 13 13 13 14 14 13 13 13 12 11 12 13 14 14 14 15 15 16 17 19 20 21 22 23 23 22 22 21 20 20 21 22 23 24 25 25 26 26 26 26 26 26 26 25 23 21 19 19 21 23 24 24 24 23 21 20 20 20 21 22 22 22 22 22 21 21 20 19 18 18 17 15
11 11 10 10 11 11 10 10 10 10 10 11 11 12 12 12 11 11 11 11 12 11 11 11 13 14 16 16 17 18 19 20 21 22 22 23 23 23 23 22 20 19 19 19 19 20 21 23 25 25 23 22 21 22 23 23 21 19 16 16 19 22 24 25 24 22 20 19 19 19 19 19 19 19 19 18 17 17 17 17 17 17 16 14 13
11 10 8 8 9 10 9 9 10 10 10 10 10 10 10 9 10 10 10 11 11 12 12 12 13 14 15 16 17 18 19 19 20 20 21 22 22 22 22 21 20 19 18 15 14 15 16 18 20 20 19 19 19 21 22 21 19 15 14 19 24 25 25 24 23 20 19 19 19 19 17 16 15 14 13 13 13 14 15 15 15 15 13 12 12
10 9 8 7 8 9 9 9 10 10 9 9 9 9 9 8 9 9 9 10 11 11 12 12 13 14 14 15 16 17 18 18 19 19 19 20 20 20 20 19 18 17 15 12 10 11 13 11 10 10 11 15 18 20 19 17 14 13 16 22 26 26 25 24 21 18 18 18 16 13 12 11 10 10 10 11 12 13 13 13 13 13 12 11 10
8 9 9 8 8 8 8 8 9 9 9 9 9 9 8 8 8 8 8 9 11 11 12 13 13 14 15 16 16 17 17 18 18 18 17 17 18 19 18 17 15 13 12 10 8 8 8 8 7 7 8 9 11 13 14 13 13 13 16 20 22 21 20 20 17 15 15 14 11 9 9 9 9 10 10 10 11 11 11 12 12 11 11 10 10
7 8 8 7 7 7 7 8 9 10 10 10 10 10 9 8 9 9 10 11 12 13 13 14 14 15 16 16 17 17 17 18 18 17 16 16 17 19 19 18 14 10 7 7 6 5 6 7 8 8 8 5 1 3 6 11 15 16 18 19 19 16 16 16 15 13 12 10 9 9 9 8 8 9 9 9 9 9 9 10 10 10 10 9 9
6 7 7 5 4 4 6 7 9 10 11 11 10 10 10 10 10 10 11 11 12 13 13 13 14 14 15 15 16 17 17 17 17 17 16 16 17 18 18 17 14 9 6 5 5 5 6 7 8 8 7 3 1 2 3 8 13 14 15 16 16 16 16 15 13 11 10 9 9 8 8 7 7 8 8 8 7 7 7 8 9 9 8 8 8
6 6 6 5 3 3 5 6 8 10 11 10 10 10 9 10 10 11 11 11 11 12 12 13 13 14 14 15 15 16 17 17 18 17 17 18 18 18 17 15 12 10 9 7 7 6 6 6 8 8 5 2 2 4 7 10 12 13 14 16 16 15 14 12 10 9 9 8 7 6 6 6 6 7 7 6 5 6 7 8 8 8 8 8 8
5 5 5 4 3 3 4 5 7 8 9 9 9 9 10 10 10 10 11 11 11 11 12 12 12 13 13 14 14 15 16 17 18 18 18 18 17 17 16 13 10 9 8 8 8 8 6 6 7 7 4 2 3 7 12 14 14 13 14 13 12 11 10 9 8 7 5 4 3 4 5 6 6 6 6 5 5 6 7 7 8 8 8 7 7
3 3 2 2 2 3 3 3 4 5 6 7 7 8 9 9 9 9 10 10 10 10 11 11 11 12 12 13 14 15 15 16 16 16 15 14 13 12 11 10 8 6 5 6 7 7 6 5 4 2 3 5 9 13 15 14 12 11 10 8 6 5 5 5 4 3 1 2 3 5 5 6 6 6 5 5 5 6 7 7 7 7 7 6 6
2 1 0 1 2 2 2 3 3 4 5 6 7 7 7 7 7 8 8 9 9 10 10 10 10 11 12 13 14 14 14 14 14 13 11 10 8 5 5 6 7 6 4 4 4 4 3 2 4 3 3 8 12 14 13 11 10 9 7 4 1 1 2 1 1 1 2 4 4 5 5 5 5 5 6 6 6 7 7 6 6 6 6 6 6
3 2 2 2 1 2 2 3 3 5 6 7 8 8 9 8 8 8 8 9 10 10 10 10 10 11 12 13 13 14 14 14 13 12 10 8 7 5 1 3 5 6 6 5 4 3 1 4 6 5 2 4 6 6 6 7 7 5 2 0 2 2 2 1 1 2 3 4 4 4 5 5 6 6 6 6 7 6 6 5 5 5 5 5 7
5 4 3 2 1 1 2 2 4 5 6 7 8 9 10 10 10 11 11 11 11 10 10 10 10 11 12 13 13 14 14 14 12 11 10 8 6 5 4 4 5 6 7 7 7 6 4 3 4 4 3 1 1 1 3 5 4 1 1 3 3 2 1 1 2 3 4 4 5 5 5 6 7 7 6 6 6 5 4 4 4 4 5 6 7
6 4 4 3 2 2 2 2 4 5 6 8 9 10 10 11 12 12 13 13 13 13 12 11 11 11 11 12 13 13 13 12 12 10 8 7 7 7 7 8 9 9 9 9 9 8 6 5 3 4 4 4 4 3 3 4 4 3 3 4 3 2 1 2 3 4 5 5 6 6 6 7 7 6 6 6 5 4 4 3 3 4 5 6 7
6 5 5 4 4 4 4 4 5 6 7 8 9 10 11 11 12 13 13 14 14 14 14 14 13 13 13 12 13 13 12 11 10 9 7 6 6 6 7 9 10 10 9 9 8 7 6 6 7 6 6 7 7 7 5 6 5 4 4 4 3 2 2 3 3 4 5 5 6 6 6 6 7 6 6 5 5 4 3 3 3 4 6 7 7
Wind_Direction
187 188 190 195 202 209 210 207 206 210 214 216 221 231 241 247 252 259 264 269 277 286 293 289 273 265 264 260 253 249 244 233 221 209 202 201 200 200 200 193 182 173 168 165 169 172 172 173 175 175 175 171 170 178 185 191 200 202 204 210 215 219 213 197 183 181 193 201 202 211 227 241 251 259 267 275 280 282 282 282 284 285 288 290 292
188 192 196 200 206 212 213 211 211 215 218 220 226 235 243 248 251 255 257 262 270 280 286 280 265 256 254 251 245 243 239 230 219 209 202 199 199 203 203 193 181 177 170 164 166 171 172 172 169 169 171 171 174 181 181 184 193 196 197 199 202 203 198 194 195 200 209 220 228 239 250 257 264 272 278 283 286 287 286 285 285 286 288 290 291
193 197 200 203 209 212 213 215 218 221 221 222 229 237 245 251 253 252 251 256 263 270 277 274 262 250 247 246 237 233 235 230 220 209 201 198 197 199 201 193 183 179 174 167 167 171 175 174 168 168 172 173 176 176 169 171 180 185 185 185 189 193 195 198 205 212 220 231 238 247 257 264 271 276 280 284 286 288 289 288 288 288 289 290 290
199 202 203 205 210 213 215 217 220 224 225 224 228 235 243 251 254 252 247 250 257 263 267 267 259 247 243 245 234 226 227 228 221 208 201 202 200 197 198 195 187 182 177 171 169 171 173 170 164 163 165 165 167 165 160 163 172 178 180 182 186 191 198 205 213 222 229 233 238 245 254 263 273 279 284 288 291 293 293 292 292 292 291 291 290
205 209 210 211 213 214 217 219 222 226 227 227 231 237 244 251 255 253 247 247 253 256 258 260 256 246 243 247 239 226 222 221 218 209 204 206 204 199 198 196 190 182 176 172 169 166 166 162 158 157 159 161 165 166 165 167 171 175 179 184 191 197 204 211 220 230 235 239 245 253 262 273 283 291 297 301 303 303 301 299 297 296 294 291 289
214 214 214 219 221 219 220 222 226 229 230 231 235 240 246 252 255 251 244 245 250 250 251 255 251 243 241 246 239 223 216 214 211 206 203 206 206 203 201 197 191 181 173 171 168 164 163 160 158 159 161 164 170 175 178 181 184 189 195 203 211 218 224 231 239 246 249 252 258 268 279 287 291 295 299 302 303 304 304 304 302 299 296 292 288
227 224 223 228 229 226 225 226 228 231 233 234 238 242 246 249 251 245 240 243 246 246 249 249 241 235 235 237 228 215 210 207 203 202 200 199 199 200 199 195 189 182 175 173 170 166 164 162 161 163 165 170 178 183 187 192 199 211 223 234 242 246 251 256 259 262 264 265 271 280 285 288 289 291 293 295 298 300 300 300 299 298 297 292 287
236 237 236 236 235 232 229 229 231 233 235 235 238 243 246 247 244 235 233 240 242 241 246 242 230 226 228 225 216 208 207 203 201 202 200 196 195 196 198 195 190 185 181 176 172 170 169 169 171 174 178 183 189 195 202 211 224 242 256 263 268 271 274 276 277 279 281 282 283 283 283 284 286 287 289 291 293 295 294 294 295 295 295 293 288
245 247 243 240 242 242 239 237 238 240 243 243 243 245 249 248 240 231 232 238 237 236 240 233 220 220 222 216 210 209 209 204 201 202 202 200 199 199 200 197 192 191 189 186 183 181 181 183 186 191 195 201 208 219 234 248 259 265 271 274 277 279 281 283 285 286 287 287 286 284 282 283 285 287 288 290 291 291 291 293 295 295 295 294 292
256 264 261 241 240 244 241 239 238 241 247 252 249 250 253 249 239 236 239 236 230 232 233 223 214 216 219 213 210 213 215 211 204 203 202 201 202 203 204 203 200 200 202 202 202 202 204 206 210 217 225 232 242 251 260 266 269 271 274 276 279 283 286 289 290 290 289 288 286 285 285 287 289 290 289 290 290 291 292 293 294 294 294 293 292
256 268 273 250 236 236 232 231 232 234 237 241 242 244 245 240 236 237 232 222 220 230 229 220 215 216 218 215 211 214 218 217 211 207 205 204 205 206 209 211 212 212 214 217 220 223 227 231 235 240 245 250 256 260 264 267 271 274 278 280 283 287 290 291 292 291 290 289 287 287 288 290 292 292 291 292 293 293 293 293 293 293 293 292 290
246 245 249 229 224 229 222 221 228 231 224 222 229 228 224 222 220 215 210 212 221 228 224 220 219 218 219 218 216 216 219 220 219 217 215 214 213 213 214 217 219 220 223 226 230 234 238 242 247 250 253 256 259 262 265 268 272 275 278 281 283 284 287 288 288 287 287 287 287 287 288 290 290 291 292 294 294 293 292 292 292 292 291 290 289
197 185 181 176 190 206 208 214 225 229 219 212 216 213 205 201 196 197 206 218 226 229 225 222 221 220 222 223 222 221 222 223 224 224 224 223 222 222 222 223 224 225 228 230 232 236 239 242 247 250 253 256 258 261 264 267 270 274 276 278 280 281 283 283 283 284 284 285 286 287 288 287 287 289 291 292 293 293 293 291 290 289 289 288 285
173 165 158 157 167 177 192 209 220 230 226 215 211 207 203 201 200 206 219 226 228 231 230 226 225 224 224 226 227 227 228 228 227 228 230 231 232 232 231 231 232 233 235 237 239 241 242 244 247 249 252 254 257 261 265 269 271 274 276 277 279 280 281 282 283 283 284 285 286 286 285 285 285 287 287 288 290 290 289 287 285 285 286 285 283
173 166 157 154 157 162 177 197 208 222 227 222 218 214 212 212 211 216 227 231 230 233 233 232 234 233 230 230 232 233 234 235 235 234 236 237 239 240 240 239 239 239 240 242 245 247 249 250 252 253 254 257 260 263 266 268 270 272 273 275 276 276 277 279 281 283 284 284 284 284 284 284 285 285 286 287 288 286 285 283 282 281 281 281 279
171 167 165 165 168 172 179 188 196 207 215 221 226 224 218 216 218 224 232 233 232 236 239 241 242 241 239 237 237 238 240 240 242 243 243 244 246 247 248 248 248 247 247 247 249 250 252 253 254 255 256 258 260 261 263 264 265 267 269 270 271 272 273 275 276 279 280 281 281 281 281 282 282 283 284 284 284 283 283 283 282 280 278 276 276
179 181 184 186 190 192 194 198 203 207 209 214 223 227 223 218 222 230 236 238 235 234 237 243 245 245 244 242 242 244 245 245 246 247 248 249 250 251 252 253 255 255 255 255 256 255 255 255 255 256 258 259 259 260 262 264 266 267 269 270 271 271 273 275 276 276 277 277 278 278 279 281 281 282 283 284 285 285 286 286 286 283 278 275 273
203 206 207 208 208 206 209 215 220 222 221 217 219 224 225 225 229 233 239 244 245 240 235 239 243 244 244 244 245 247 248 249 249 249 250 251 252 253 255 256 257 258 259 260 260 260 259 257 257 259 260 261 262 264 265 266 267 267 268 269 271 272 275 277 277 277 276 276 277 277 279 280 281 282 284 285 285 287 288 288 288 284 276 271 266
225 227 228 223 219 218 219 222 226 230 233 232 227 226 226 227 231 235 238 243 249 248 240 238 240 243 245 245 246 248 251 253 254 254 254 254 254 254 254 256 257 258 258 258 258 259 259 258 258 260 261 261 262 263 264 265 265 266 267 268 270 272 275 276 276 277 277 276 276 277 279 280 281 282 282 281 283 285 285 285 286 281 270 261 254
229 232 234 232 230 232 233 232 233 233 234 237 237 237 236 235 236 238 240 242 244 246 244 242 243 244 246 247 249 252 255 258 260 261 261 259 258 258 257 257 257 257 257 256 256 257 259 261 261 259 259 261 261 261 261 262 263 266 268 271 273 275 275 275 276 277 277 277 277 278 279 280 280 280 280 281 282 282 281 281 281 274 264 256 252
242 242 241 241 240 240 241 242 243 241 239 239 239 240 243 245 245 245 246 247 248 248 249 249 250 251 253 255 256 257 259 260 261 262 262 262 261 261 261 262 262 262 261 260 259 259 262 265 266 262 260 260 262 263 265 266 269 272 275 277 279 279 279 278 277 276 276 275 275 276 276 277 278 278 279 280 280 281 281 278 272 263 255 253 256
259 258 258 256 254 253 255 257 256 254 251 249 248 247 247 248 249 249 249 250 251 252 253 254 255 257 259 260 261 261 261 261 262 262 263 264 264 263 264 264 265 265 265 264 263 262 262 264 266 267 266 263 263 264 265 268 271 273 276 278 279 280 281 281 279 277 276 275 275 275 276 277 277 278 278 279 281 282 278 268 257 248 246 253 260
257 258 258 259 263 269 274 275 271 267 263 259 257 255 254 253 252 252 252 252 253 255 256 257 258 259 259 260 262 262 263 263 264 264 264 265 266 266 266 266 266 266 266 265 265 264 264 264 265 267 269 268 267 267 266 268 269 271 274 276 277 279 281 281 280 279 278 276 276 277 279 280 280 282 282 283 281 275 262 249 242 242 248 258 265
254 256 257 259 264 269 271 273 272 270 268 265 262 261 260 259 258 257 257 257 257 258 259 259 259 260 260 260 261 261 262 262 263 263 263 263 264 264 265 265 265 265 265 265 264 264 264 264 265 267 268 270 270 270 270 270 271 272 274 274 275 278 280 281 281 281 279 278 278 281 282 281 282 285 282 274 264 254 243 236 239 246 253 261 269
253 256 258 260 263 266 268 269 270 270 269 268 267 266 265 264 264 263 264 264 264 264 264 265 265 265 265 265 264 265 265 266 266 266 266 265 265 264 264 264 264 264 264 264 265 265 265 265 266 267 268 269 270 270 271 271 272 272 272 273 274 276 277 278 280 280 280 279 279 281 281 278 277 277 268 254 242 237 238 240 244 248 256 265 271
256 258 260 261 262 264 267 268 269 269 269 269 268 268 267 266 266 266 267 268 268 269 269 269 270 270 270 270 270 270 269 269 270 270 270 269 269 268 267 266 266 266 266 266 266 267 267 267 268 269 269 269 269 269 269 270 270 270 271 271 272 273 274 275 277 279 280 279 278 280 281 277 271 265 257 250 244 244 247 249 250 254 261 266 270
263 263 263 263 264 265 267 268 270 270 271 271 272 272 272 272 272 272 272 272 272 273 273 272 273 272 272 272 272 272 272 272 272 271 271 271 271 271 270 270 269 268 268 268 268 268 268 268 269 270 270 270 269 269 268 268 268 268 269 269 269 269 271 272 274 276 277 277 279 279 274 263 254 247 245 248 250 250 251 255 259 262 264 267 273
270 270 269 269 270 270 271 272 272 273 274 274 274 275 275 275 275 275 275 275 275 275 276 276 276 276 276 276 276 276 277 277 276 276 274 274 273 273 272 272 272 272 271 270 270 270 269 270 269 269 269 269 268 268 267 266 266 266 266 266 266 267 268 269 272 273 274 276 278 273 257 243 237 236 240 245 249 250 252 256 258 261 264 270 277
272 272 272 273 273 273 273 273 273 274 274 274 274 275 275 275 275 276 276 277 277 278 278 279 280 280 280 281 281 281 280 280 279 277 276 275 274 273 272 272 271 272 272 272 272 271 271 271 271 270 270 269 268 268 267 266 265 264 264 265 264 264 265 266 268 270 271 273 274 266 253 247 246 244 242 243 244 245 248 252 255 259 266 274 281
271 272 272 272 273 273 274 274 274 275 275 276 277 277 277 276 277 278 279 280 280 281 282 283 284 285 285 285 285 284 283 281 279 277 275 274 274 274 273 272 271 270 271 271 272 273 273 274 273 273 272 271 270 270 268 267 266 265 264 264 264 264 263 263 264 267 269 271 270 262 255 253 249 243 239 237 237 240 245 250 255 262 271 279 286
274 274 274 274 275 275 276 276 278 279 279 280 280 281 283 283 283 284 285 285 285 286 287 288 289 289 288 287 286 286 285 283 282 281 279 278 278 277 276 276 275 274 272 272 272 272 273 273 272 272 272 272 272 271 270 269 267 266 266 265 265 264 263 262 263 266 267 269 267 258 248 241 235 231 228 228 232 239 246 252 260 268 276 283 290
277 277 278 278 279 279 279 280 281 281 282 281 281 282 285 287 289 289 290 289 289 288 288 290 291 292 291 290 288 287 286 286 286 285 285 284 283 282 281 281 280 279 277 276 274 273 272 271 270 270 270 270 270 269 269 268 268 268 268 268 267 266 265 263 263 266 269 270 262 246 226 215 216 219 222 228 235 243 252 259 266 273 279 285 291
278 279 280 281 281 281 281 281 280 279 279 278 279 280 281 281 284 288 291 293 294 293 292 293 294 295 294 292 291 290 290 289 289 290 290 290 290 289 289 288 286 284 281 279 277 275 273 271 269 267 266 265 265 264 264 264 265 266 267 267 269 270 269 267 266 266 264 257 243 223 204 202 213 221 229 237 242 249 258 264 269 275 281 288 291
278 279 281 281 281 279 278 276 275 274 274 275 276 278 279 280 282 285 290 294 297 298 298 297 298 298 296 295 294 295 295 296 297 297 298 299 299 298 296 294 292 289 285 282 280 278 275 272 268 265 262 260 259 258 258 258 259 261 262 264 265 267 270 273 268 252 235 226 217 207 200 209 219 227 237 244 247 254 262 268 272 277 283 287 286
284 284 284 283 280 276 274 272 272 272 273 275 278 280 283 286 288 289 291 291 292 295 298 299 301 305 306 305 306 308 309 310 310 309 309 308 307 304 301 298 295 292 289 285 281 278 276 273 268 263 258 255 254 253 253 254 256 258 261 263 264 265 268 270 256 229 214 209 207 207 216 225 230 237 244 249 253 260 267 272 277 279 281 281 280
292 291 291 288 282 276 273 272 273 274 276 279 282 285 287 289 289 290 291 293 294 296 300 304 309 316 319 319 319 319 318 316 315 314 314 313 312 310 307 304 302 299 295 291 286 281 276 272 266 260 254 251 249 249 251 254 257 260 262 264 265 264 257 245 231 225 231 236 233 230 233 238 241 245 249 255 262 268 273 276 277 275 275 277 278
299 298 292 285 277 273 272 272 272 274 277 281 283 284 284 285 287 290 294 297 298 299 302 308 316 322 324 325 324 322 321 320 318 318 317 316 315 313 311 312 314 311 305 300 293 286 279 270 261 254 249 248 250 252 254 257 258 258 256 252 250 248 242 235 235 240 243 240 235 234 236 240 244 250 258 265 270 272 272 272 271 272 276 279 279
308 303 290 276 270 267 266 267 269 270 273 277 279 280 282 286 292 298 304 305 303 301 301 305 312 317 319 321 322 322 323 323 322 322 321 320 319 316 314 316 320 319 314 308 302 296 288 276 265 257 251 251 255 257 256 254 250 245 237 229 230 236 237 235 234 232 228 227 231 238 243 250 257 262 266 268 268 267 267 269 272 277 280 279 277
313 309 295 279 271 267 263 263 265 268 271 276 280 284 289 297 306 313 315 313 310 309 307 307 309 311 314 317 319 321 322 323 324 325 325 326 327 324 319 317 318 320 319 315 315 319 312 289 271 260 252 250 253 256 253 247 237 227 220 221 225 227 225 221 217 216 220 229 239 245 252 258 260 259 259 259 261 264 269 273 277 280 280 278 275
315 316 312 296 280 271 266 265 266 270 276 282 287 291 297 307 316 320 322 321 319 319 317 314 313 314 315 316 318 320 322 323 326 328 330 332 335 334 329 324 323 323 319 312 313 327 328 308 277 261 256 254 254 254 249 235 220 222 230 225 218 210 203 202 206 214 225 235 242 246 248 247 242 242 249 256 262 269 276 279 281 281 278 274 268
313 321 319 302 283 274 270 269 271 275 279 285 289 293 299 305 307 311 317 322 323 324 323 321 320 319 320 321 323 323 325 326 329 332 335 337 340 339 336 334 335 333 326 315 304 305 311 304 286 280 283 272 252 242 234 218 210 225 232 220 208 198 192 193 204 220 228 231 233 232 232 235 240 246 252 259 267 276 281 282 281 277 272 267 264
312 323 319 300 282 274 272 273 275 278 282 285 287 291 297 300 299 299 305 311 315 317 318 319 320 322 325 328 328 328 329 330 332 335 337 339 341 340 336 334 340 350 350 336 321 307 298 290 276 270 279 287 222 193 221 218 215 217 212 203 198 197 195 196 206 216 216 214 215 219 225 233 242 252 261 270 276 280 280 277 273 268 264 262 262
310 321 317 303 289 283 278 276 276 278 280 283 285 288 293 297 297 297 301 306 311 312 313 315 319 323 326 329 329 329 330 333 335 337 336 335 338 340 336 331 329 335 342 334 323 317 308 294 279 270 271 278 69 93 181 202 202 201 198 193 192 194 194 194 195 195 196 203 212 219 226 237 249 260 267 270 271 269 265 261 260 259 259 259 262
307 319 315 306 304 304 291 281 279 280 281 284 287 290 291 292 294 298 303 307 309 310 311 314 318 322 325 327 328 328 331 334 336 336 335 334 335 339 341 334 321 315 319 321 317 312 306 296 289 281 270 237 149 165 185 191 194 198 200 198 196 195 193 189 183 182 190 203 214 227 242 253 258 261 258 253 249 249 248 249 250 252 253 256 262
304 318 315 310 321 322 306 293 288 288 289 292 296 296 296 295 297 299 303 305 306 309 313 317 320 322 324 325 327 328 332 334 334 333 334 334 334 338 342 339 326 313 311 314 314 311 305 297 289 278 262 221 186 192 194 195 197 198 197 196 195 194 192 189 183 182 193 211 233 256 261 257 254 252 248 241 236 239 243 249 251 252 254 258 264
298 315 319 347 14 3 347 333 324 318 315 316 316 313 310 309 307 305 305 307 310 315 319 322 324 325 324 324 325 327 330 332 331 329 328 328 332 340 348 351 346 331 311 304 309 308 303 304 308 286 229 204 196 194 191 189 189 186 183 182 185 193 200 194 177 164 199 251 256 258 255 249 245 243 241 237 235 235 239 247 252 255 261 265 268
272 282 237 87 60 35 18 14 8 1 358 358 356 352 347 339 330 321 318 320 325 328 330 331 330 329 327 326 325 325 327 328 326 320 313 308 311 331 11 28 29 23 9 344 323 307 303 19 53 69 166 182 184 186 186 181 173 167 164 164 191 249 251 235 170 184 251 254 249 243 239 233 231 229 229 230 231 230 232 238 244 252 261 268 274
232 210 173 137 87 36 21 29 32 29 27 26 25 22 18 12 3 353 347 345 343 343 341 337 335 334 332 330 326 325 327 327 324 319 313 304 292 283 307 53 53 48 44 36 19 0 69 100 84 70 110 172 172 172 174 169 159 147 143 248 296 293 284 274 244 235 240 241 234 226 219 216 217 220 223 225 227 228 229 233 237 246 260 273 280
220 204 189 174 132 56 29 38 50 49 45 43 40 36 32 27 21 17 13 9 4 359 350 340 335 334 336 336 335 332 332 334 335 334 337 344 341 330 335 4 19 24 28 29 26 24 37 88 97 67 38 6 211 185 176 175 171 173 266 276 289 305 294 238 222 219 222 221 216 211 208 209 214 218 221 223 224 223 223 227 238 255 272 281 284
214 200 190 176 139 110 85 68 67 64 58 53 49 44 39 35 31 27 25 23 20 17 10 1 352 346 346 349 349 348 349 354 358 358 4 17 17 9 7 12 12 9 7 6 5 2 358 356 1 6 354 331 311 295 248 211 202 221 255 274 297 313 262 211 206 207 209 207 204 203 205 210 215 218 218 213 210 209 214 230 254 271 281 286 289
204 187 173 156 136 124 115 99 82 71 61 56 51 47 41 37 34 30 28 26 25 24 22 19 15 11 7 4 0 358 1 7 10 12 18 23 14 360 357 1 2 0 0 0 355 345 330 318 313 313 315 314 309 296 259 221 208 220 245 263 276 267 232 215 211 209 208 206 206 208 211 214 214 211 205 198 196 202 215 237 264 278 286 293 297
Height
3114 3118 3120 3122 3124 3126 3128 3129 3130 3132 3133 3135 3136 3136 3137 3137 3137 3138 3139 3139 3140 3141 3141 3141 3141 3141 3141 3141 3140 3140 3141 3141 3141 3142 3142 3142 3143 3143 3144 3144 3145 3146 3147 3148 3149 3150 3151 3151 3152 3154 3155 3156 3157 3158 3159 3160 3161 3161 3162 3162 3163 3164 3164 3165 3165 3166 3166 3167 3167 3167 3168 3168 3168 3168 3169 3169 3169 3168 3168 3168 3167 3166 3166 3166 3166
3113 3116 3119 3121 3123 3125 3127 3128 3129 3131 3132 3134 3135 3135 3136 3136 3136 3137 3138 3138 3139 3140 3140 3140 3141 3141 3140 3140 3140 3140 3140 3141 3141 3141 3142 3142 3143 3143 3144 3144 3145 3146 3147 3148 3149 3150 3151 3151 3152 3153 3154 3155 3156 3157 3158 3159 3160 3161 3162 3163 3163 3164 3165 3165 3166 3166 3167 3167 3167 3167 3167 3168 3168 3168 3168 3168 3168 3167 3167 3166 3166 3165 3165 3164 3164
3112 3114 3116 3119 3121 3123 3125 3127 3128 3129 3131 3132 3133 3134 3134 3135 3135 3136 3137 3137 3137 3138 3139 3139 3140 3140 3140 3139 3139 3139 3140 3140 3140 3141 3141 3142 3142 3143 3144 3144 3145 3146 3147 3148 3149 3150 3151 3151 3152 3153 3154 3155 3156 3157 3158 3159 3160 3161 3162 3163 3164 3165 3165 3166 3166 3167 3167 3167 3167 3167 3167 3167 3167 3167 3167 3167 3166 3166 3165 3164 3164 3163 3163 3163 3162
3111 3113 3116 3118 3120 3122 3124 3125 3126 3127 3129 3130 3131 3132 3132 3133 3134 3135 3135 3136 3136 3137 3138 3138 3138 3139 3139 3139 3139 3139 3139 3139 3140 3140 3140 3141 3142 3143 3143 3144 3145 3146 3148 3148 3149 3150 3151 3151 3152 3153 3154 3155 3156 3157 3158 3159 3160 3161 3162 3163 3164 3165 3165 3166 3166 3167 3167 3167 3167 3166 3166 3166 3166 3166 3166 3165 3165 3164 3164 3163 3162 3162 3161 3161 3161
3111 3114 3116 3117 3118 3119 3121 3123 3124 3126 3127 3128 3129 3129 3130 3131 3132 3133 3134 3134 3135 3136 3137 3137 3137 3138 3138 3138 3138 3138 3138 3139 3139 3140 3140 3141 3141 3142 3143 3144 3145 3147 3148 3149 3149 3150 3150 3151 3152 3153 3154 3155 3156 3157 3158 3159 3160 3161 3162 3163 3163 3164 3165 3165 3166 3166 3166 3166 3166 3165 3165 3165 3165 3164 3164 3164 3163 3163 3162 3161 3160 3160 3160 3159 3159
3109 3112 3114 3115 3115 3116 3118 3121 3122 3124 3125 3125 3126 3126 3127 3128 3129 3131 3132 3133 3134 3135 3135 3136 3136 3136 3137 3137 3137 3138 3138 3138 3139 3140 3140 3140 3141 3142 3143 3144 3145 3147 3148 3149 3150 3150 3151 3151 3153 3154 3155 3156 3157 3157 3158 3159 3160 3160 3161 3162 3162 3163 3164 3164 3165 3165 3165 3165 3164 3164 3163 3163 3163 3162 3162 3161 3161 3161 3160 3160 3159 3158 3158 3157 3156
3106 3109 3111 3112 3113 3115 3117 3118 3119 3120 3121 3122 3122 3122 3123 3125 3127 3129 3130 3131 3132 3133 3134 3135 3135 3135 3135 3136 3136 3137 3137 3138 3139 3139 3140 3140 3141 3141 3142 3144 3145 3146 3148 3149 3149 3150 3151 3152 3153 3154 3155 3156 3157 3157 3158 3158 3159 3159 3160 3161 3161 3162 3162 3163 3163 3163 3163 3163 3162 3162 3161 3161 3161 3161 3161 3160 3160 3160 3159 3158 3157 3157 3156 3155 3154
3105 3107 3108 3108 3110 3112 3113 3114 3116 3117 3118 3118 3119 3119 3120 3122 3124 3126 3127 3129 3130 3132 3132 3133 3134 3134 3134 3135 3135 3136 3136 3137 3138 3139 3139 3140 3140 3141 3142 3143 3144 3146 3147 3148 3149 3150 3150 3151 3152 3153 3154 3155 3155 3156 3156 3157 3157 3158 3159 3159 3160 3160 3160 3161 3161 3161 3161 3161 3160 3160 3160 3159 3159 3159 3159 3159 3159 3158 3157 3156 3155 3155 3154 3153 3152
3103 3104 3105 3105 3106 3108 3109 3111 3112 3114 3114 3115 3117 3117 3117 3118 3120 3122 3125 3127 3128 3130 3131 3132 3132 3133 3133 3134 3135 3135 3136 3136 3137 3138 3139 3140 3140 3141 3142 3143 3144 3145 3146 3147 3148 3149 3150 3150 3151 3152 3152 3153 3153 3154 3154 3155 3156 3156 3157 3157 3158 3158 3158 3158 3159 3159 3158 3158 3158 3158 3158 3158 3158 3157 3157 3157 3157 3156 3155 3154 3153 3152 3152 3151 3150
3100 3101 3102 3103 3104 3105 3107 3108 3110 3111 3112 3113 3114 3114 3114 3116 3118 3121 3123 3125 3127 3128 3129 3130 3131 3132 3133 3134 3134 3135 3135 3136 3137 3137 3138 3139 3140 3141 3142 3142 3143 3145 3146 3146 3147 3148 3148 3149 3150 3150 3151 3151 3151 3152 3153 3153 3154 3154 3155 3155 3155 3155 3155 3156 3156 3156 3156 3156 3156 3156 3156 3156 3155 3155 3154 3154 3154 3153 3153 3152 3151 3150 3149 3148 3147
3098 3100 3101 3102 3103 3104 3106 3107 3108 3110 3111 3112 3112 3113 3113 3114 3116 3118 3121 3123 3125 3126 3128 3129 3130 3130 3132 3133 3134 3134 3135 3135 3136 3136 3137 3138 3139 3140 3141 3142 3143 3144 3145 3145 3146 3146 3147 3147 3148 3148 3149 3149 3149 3150 3150 3151 3151 3152 3152 3152 3152 3153 3153 3153 3153 3154 3154 3154 3154 3153 3153 3153 3152 3152 3152 3152 3152 3151 3150 3149 3148 3147 3146 3146 3145
3097 3099 3100 3101 3102 3104 3105 3106 3107 3109 3110 3111 3111 3111 3112 3113 3114 3117 3119 3122 3124 3125 3126 3128 3129 3130 3131 3132 3133 3133 3134 3134 3135 3136 3136 3137 3138 3139 3140 3141 3142 3143 3143 3144 3144 3145 3145 3146 3146 3146 3147 3147 3147 3148 3148 3149 3149 3149 3149 3149 3150 3150 3151 3151 3151 3151 3151 3151 3151 3151 3150 3150 3149 3149 3149 3149 3148 3148 3147 3146 3145 3144 3143 3143 3142
3096 3098 3099 3101 3102 3103 3104 3105 3107 3108 3109 3110 3110 3111 3112 3113 3114 3117 3119 3121 3123 3124 3125 3127 3128 3129 3130 3131 3132 3132 3133 3133 3134 3134 3135 3136 3136 3137 3138 3139 3140 3141 3141 3142 3142 3143 3143 3144 3144 3145 3145 3145 3145 3146 3146 3146 3147 3147 3147 3147 3147 3148 3148 3148 3148 3148 3148 3148 3147 3147 3147 3147 3146 3146 3146 3145 3145 3144 3143 3142 3141 3140 3140 3139 3138
3096 3098 3099 3100 3102 3103 3104 3105 3106 3107 3108 3109 3110 3111 3112 3114 3115 3117 3119 3121 3122 3123 3125 3126 3127 3128 3129 3130 3130 3131 3131 3131 3132 3133 3133 3134 3135 3136 3137 3137 3138 3139 3139 3140 3140 3140 3141 3141 3142 3142 3143 3143 3143 3144 3144 3144 3144 3144 3144 3144 3145 3145 3144 3144 3144 3144 3144 3144 3144 3144 3144 3143 3143 3143 3143 3142 3142 3141 3140 3139 3138 3137 3136 3135 3134
3096 3098 3099 3100 3101 3102 3104 3105 3106 3107 3108 3109 3109 3110 3112 3114 3115 3117 3118 3120 3121 3122 3123 3124 3126 3127 3127 3128 3129 3129 3129 3130 3130 3131 3132 3133 3133 3134 3135 3135 3136 3137 3137 3137 3138 3138 3138 3139 3139 3140 3140 3141 3141 3142 3142 3142 3141 3141 3141 3141 3141 3141 3141 3141 3141 3141 3141 3140 3140 3140 3140 3140 3139 3139 3139 3138 3138 3137 3136 3135 3134 3133 3132 3131 3130
3096 3098 3099 3100 3101 3102 3103 3105 3106 3107 3108 3109 3109 3110 3112 3114 3115 3116 3118 3119 3120 3120 3121 3122 3123 3125 3126 3126 3127 3127 3128 3128 3129 3129 3130 3131 3131 3132 3133 3133 3134 3134 3135 3135 3135 3136 3136 3136 3136 3137 3137 3138 3139 3139 3138 3138 3137 3137 3137 3138 3138 3138 3138 3138 3138 3138 3137 3137 3136 3135 3136 3135 3134 3134 3134 3134 3133 3133 3132 3131 3130 3129 3128 3127 3125
3096 3098 3099 3100 3101 3102 3103 3104 3105 3106 3107 3108 3109 3110 3111 3113 3114 3115 3116 3117 3117 3118 3120 3120 3121 3122 3123 3124 3125 3125 3126 3126 3127 3127 3128 3128 3129 3129 3129 3130 3131 3131 3132 3132 3133 3132 3132 3132 3132 3133 3134 3135 3135 3135 3134 3133 3133 3133 3133 3134 3134 3133 3134 3134 3134 3134 3133 3132 3131 3131 3130 3130 3129 3129 3129 3128 3128 3128 3127 3126 3125 3124 3123 3122 3121
3095 3097 3098 3100 3101 3102 3103 3104 3105 3106 3107 3108 3108 3109 3110 3112 3113 3114 3115 3115 3114 3116 3118 3119 3119 3120 3121 3121 3122 3122 3123 3123 3124 3124 3125 3125 3126 3126 3126 3126 3127 3128 3128 3129 3129 3129 3128 3128 3129 3130 3130 3131 3131 3130 3129 3129 3128 3128 3129 3129 3128 3129 3130 3130 3129 3128 3128 3127 3126 3126 3125 3124 3124 3124 3123 3123 3122 3122 3121 3120 3120 3119 3118 3117 3118
3095 3096 3097 3099 3100 3101 3103 3104 3105 3105 3106 3107 3108 3109 3109 3110 3111 3112 3113 3113 3113 3114 3116 3117 3117 3118 3118 3119 3120 3120 3120 3120 3120 3121 3121 3121 3122 3122 3122 3123 3123 3123 3124 3124 3125 3124 3122 3124 3126 3127 3127 3127 3127 3126 3125 3124 3123 3123 3124 3124 3124 3125 3126 3126 3124 3123 3123 3122 3121 3121 3120 3119 3119 3119 3118 3118 3118 3117 3116 3115 3115 3114 3113 3112 3112
3094 3096 3097 3098 3099 3100 3101 3103 3104 3105 3105 3106 3107 3108 3108 3109 3110 3110 3111 3112 3112 3113 3114 3114 3115 3116 3116 3117 3117 3117 3118 3118 3117 3117 3118 3118 3118 3118 3119 3119 3119 3119 3119 3119 3120 3119 3118 3118 3122 3124 3123 3122 3122 3122 3121 3120 3119 3119 3119 3120 3120 3121 3122 3121 3120 3119 3118 3117 3116 3116 3115 3114 3114 3114 3114 3113 3112 3112 3111 3110 3111 3111 3110 3108 3108
3094 3095 3097 3098 3099 3100 3101 3102 3102 3103 3104 3105 3105 3106 3106 3107 3108 3109 3109 3110 3110 3111 3111 3112 3112 3112 3113 3113 3113 3114 3114 3115 3115 3114 3114 3114 3115 3115 3115 3115 3114 3114 3115 3115 3115 3115 3114 3113 3114 3117 3118 3118 3117 3117 3116 3116 3115 3114 3114 3115 3116 3116 3116 3116 3115 3115 3114 3113 3112 3111 3111 3110 3110 3109 3109 3108 3107 3106 3106 3106 3106 3106 3105 3104 3104
3092 3093 3095 3096 3097 3098 3099 3100 3101 3102 3102 3103 3104 3104 3105 3105 3105 3106 3107 3107 3107 3108 3108 3108 3109 3109 3109 3109 3110 3110 3110 3111 3111 3111 3110 3110 3110 3110 3110 3110 3109 3109 3109 3109 3109 3110 3109 3108 3108 3109 3111 3111 3112 3112 3111 3111 3110 3110 3110 3110 3110 3110 3110 3110 3109 3109 3109 3108 3107 3106 3106 3106 3105 3104 3104 3103 3102 3101 3101 3101 3100 3100 3100 3101 3101
3091 3092 3092 3093 3094 3095 3096 3097 3098 3099 3100 3101 3101 3102 3102 3103 3103 3103 3104 3104 3104 3105 3105 3105 3105 3106 3106 3106 3106 3106 3106 3106 3106 3106 3106 3106 3105 3104 3104 3104 3104 3104 3103 3103 3104 3104 3104 3104 3103 3103 3104 3104 3105 3105 3105 3105 3105 3105 3105 3105 3104 3104 3103 3103 3103 3103 3103 3102 3101 3101 3100 3100 3099 3098 3097 3096 3096 3096 3096 3095 3094 3095 3096 3098 3098
3090 3091 3091 3092 3092 3093 3094 3095 3095 3096 3097 3097 3098 3098 3099 3099 3099 3100 3100 3101 3101 3101 3101 3101 3102 3102 3102 3102 3102 3102 3101 3101 3101 3101 3101 3101 3101 3100 3099 3098 3098 3098 3097 3097 3097 3098 3098 3098 3098 3098 3098 3098 3098 3098 3098 3098 3098 3098 3099 3098 3098 3097 3097 3097 3097 3097 3097 3096 3096 3095 3095 3094 3093 3093 3092 3091 3090 3090 3090 3090 3091 3091 3093 3094 3095
3089 3089 3090 3090 3090 3091 3091 3092 3092 3093 3093 3094 3094 3094 3095 3095 3095 3096 3096 3096 3096 3097 3097 3097 3097 3097 3097 3097 3097 3097 3096 3096 3096 3095 3095 3095 3095 3094 3094 3093 3092 3092 3091 3091 3091 3090 3091 3091 3091 3091 3091 3092 3091 3091 3091 3092 3091 3091 3092 3092 3092 3092 3091 3091 3091 3091 3091 3090 3090 3090 3089 3089 3089 3088 3087 3086 3084 3084 3085 3087 3088 3088 3089 3090 3091
3087 3087 3087 3088 3088 3088 3088 3089 3089 3089 3089 3090 3090 3090 3090 3091 3091 3091 3091 3092 3092 3092 3092 3091 3091 3091 3090 3090 3090 3090 3090 3090 3089 3089 3088 3088 3087 3087 3087 3086 3086 3085 3084 3084 3083 3083 3082 3082 3083 3083 3084 3084 3084 3084 3085 3085 3084 3084 3085 3085 3086 3086 3086 3086 3085 3085 3085 3085 3084 3084 3083 3083 3082 3082 3082 3082 3081 3081 3082 3083 3084 3085 3086 3087 3087
3084 3084 3085 3085 3085 3085 3085 3085 3085 3085 3085 3086 3086 3086 3086 3086 3086 3086 3086 3086 3086 3086 3085 3085 3085 3085 3084 3084 3084 3084 3084 3083 3083 3082 3081 3080 3080 3079 3079 3078 3078 3077 3076 3076 3075 3075 3075 3075 3075 3075 3075 3076 3076 3077 3077 3077 3077 3077 3078 3078 3079 3080 3080 3079 3079 3079 3079 3079 3078 3078 3077 3075 3074 3074 3076 3078 3078 3078 3078 3080 3081 3082 3083 3083 3084
3080 3081 3081 3081 3081 3081 3082 3082 3082 3081 3081 3081 3081 3081 3081 3081 3081 3080 3080 3080 3080 3080 3079 3079 3078 3078 3078 3077 3077 3077 3077 3076 3075 3075 3074 3073 3072 3071 3071 3070 3069 3068 3068 3067 3067 3067 3067 3067 3067 3067 3067 3067 3068 3068 3069 3069 3070 3070 3070 3071 3072 3072 3073 3072 3072 3073 3073 3073 3073 3072 3071 3069 3068 3070 3071 3073 3074 3075 3076 3076 3077 3078 3079 3080 3080
3076 3076 3077 3077 3077 3077 3077 3077 3077 3077 3077 3077 3077 3076 3076 3076 3075 3075 3074 3074 3074 3074 3074 3073 3073 3072 3072 3071 3070 3070 3070 3069 3068 3067 3066 3065 3065 3064 3064 3063 3062 3061 3060 3059 3059 3059 3059 3059 3059 3059 3059 3059 3059 3060 3060 3061 3062 3062 3062 3063 3064 3065 3065 3066 3066 3066 3067 3068 3068 3068 3067 3066 3066 3067 3068 3069 3070 3072 3073 3074 3074 3075 3076 3077 3077
3073 3072 3072 3073 3073 3073 3072 3072 3072 3072 3072 3072 3072 3071 3070 3070 3070 3070 3070 3069 3069 3068 3068 3067 3067 3067 3066 3065 3064 3063 3062 3062 3061 3060 3060 3059 3058 3058 3057 3057 3056 3056 3055 3054 3053 3053 3053 3053 3052 3052 3052 3052 3052 3052 3053 3053 3054 3054 3055 3056 3056 3058 3058 3059 3059 3060 3061 3062 3063 3063 3063 3063 3063 3063 3064 3066 3067 3069 3070 3071 3071 3072 3073 3073 3072
3069 3069 3069 3069 3068 3068 3069 3068 3068 3068 3068 3067 3067 3067 3066 3065 3065 3065 3065 3064 3064 3064 3063 3063 3062 3061 3060 3060 3059 3058 3056 3055 3054 3054 3054 3053 3053 3052 3051 3051 3050 3049 3049 3048 3048 3048 3047 3047 3046 3046 3045 3045 3046 3046 3046 3047 3047 3048 3048 3049 3050 3051 3052 3053 3053 3054 3055 3057 3058 3058 3058 3058 3058 3058 3060 3062 3064 3066 3067 3068 3068 3068 3068 3068 3068
3066 3066 3066 3066 3065 3065 3065 3065 3065 3064 3064 3063 3063 3063 3063 3062 3061 3061 3061 3060 3060 3060 3060 3059 3059 3057 3056 3055 3054 3053 3052 3050 3049 3048 3048 3047 3047 3046 3045 3044 3044 3043 3042 3042 3042 3041 3041 3040 3040 3040 3040 3040 3040 3040 3041 3041 3042 3042 3043 3043 3044 3045 3046 3047 3048 3049 3050 3051 3052 3053 3054 3053 3053 3055 3057 3059 3060 3062 3063 3064 3064 3064 3065 3065 3065
3064 3064 3063 3063 3063 3063 3063 3062 3062 3061 3061 3060 3060 3061 3061 3061 3061 3060 3059 3058 3057 3056 3056 3056 3055 3054 3052 3051 3050 3048 3047 3046 3045 3044 3043 3042 3041 3040 3040 3039 3038 3037 3036 3035 3035 3034 3034 3034 3034 3034 3034 3034 3035 3035 3036 3036 3037 3037 3038 3038 3039 3040 3041 3042 3043 3044 3045 3046 3047 3048 3049 3049 3050 3053 3055 3056 3057 3058 3060 3060 3061 3061 3061 3062 3062
3062 3062 3061 3061 3061 3060 3060 3059 3059 3059 3058 3058 3058 3058 3058 3059 3059 3058 3057 3056 3055 3054 3053 3052 3052 3050 3049 3048 3046 3045 3044 3043 3042 3041 3039 3038 3037 3036 3035 3034 3033 3032 3031 3030 3029 3028 3028 3027 3028 3028 3029 3029 3029 3030 3030 3031 3032 3032 3033 3034 3035 3036 3037 3038 3038 3039 3040 3040 3041 3043 3045 3047 3049 3051 3052 3053 3054 3056 3057 3057 3057 3058 3058 3059 3059
3060 3059 3059 3059 3058 3058 3057 3056 3056 3056 3056 3056 3056 3056 3056 3056 3056 3055 3055 3055 3054 3052 3051 3050 3049 3048 3047 3045 3044 3043 3042 3041 3039 3038 3037 3036 3035 3033 3032 3031 3029 3028 3027 3026 3025 3024 3023 3022 3023 3023 3023 3024 3025 3025 3026 3027 3027 3028 3029 3029 3031 3032 3033 3034 3034 3034 3035 3037 3038 3040 3042 3045 3046 3048 3049 3050 3051 3053 3053 3054 3055 3055 3055 3056 3056
3057 3057 3056 3056 3055 3055 3054 3054 3054 3054 3054 3054 3054 3054 3054 3054 3053 3053 3052 3052 3051 3051 3049 3048 3047 3046 3045 3044 3043 3042 3040 3039 3038 3036 3035 3033 3032 3031 3029 3028 3026 3024 3023 3021 3020 3019 3019 3018 3018 3019 3019 3019 3020 3021 3022 3023 3024 3025 3025 3026 3027 3028 3030 3031 3032 3033 3034 3035 3036 3038 3040 3042 3043 3045 3046 3047 3048 3049 3050 3052 3052 3053 3053 3052 3052
3055 3055 3054 3054 3053 3053 3052 3053 3052 3052 3052 3052 3052 3052 3052 3052 3052 3051 3050 3050 3049 3049 3048 3047 3045 3044 3043 3042 3041 3040 3039 3037 3036 3034 3032 3031 3029 3028 3026 3024 3023 3021 3019 3018 3017 3016 3015 3015 3015 3015 3015 3016 3017 3019 3020 3020 3021 3022 3023 3024 3025 3026 3027 3029 3030 3031 3032 3033 3035 3036 3038 3039 3041 3042 3043 3044 3045 3047 3048 3049 3050 3049 3049 3049 3048
3054 3053 3053 3052 3051 3051 3051 3051 3051 3051 3051 3051 3051 3051 3051 3050 3050 3049 3048 3048 3047 3047 3046 3045 3044 3043 3041 3040 3039 3038 3036 3035 3033 3032 3030 3028 3026 3024 3023 3021 3020 3018 3017 3015 3014 3014 3013 3013 3012 3012 3013 3014 3016 3017 3017 3018 3018 3019 3020 3022 3023 3024 3025 3026 3028 3029 3031 3032 3034 3035 3036 3037 3038 3039 3040 3042 3043 3045 3046 3046 3046 3046 3046 3046 3046
3052 3052 3051 3051 3050 3050 3050 3050 3050 3050 3050 3050 3050 3049 3049 3048 3048 3047 3047 3046 3045 3045 3044 3043 3043 3041 3040 3039 3037 3036 3035 3033 3032 3030 3028 3026 3024 3022 3021 3019 3018 3016 3015 3014 3013 3012 3012 3011 3011 3011 3012 3012 3013 3014 3014 3015 3016 3017 3018 3020 3021 3022 3023 3024 3026 3027 3029 3031 3032 3033 3034 3035 3036 3037 3039 3040 3041 3042 3043 3043 3043 3043 3043 3043 3043
3051 3050 3050 3049 3049 3049 3049 3049 3049 3048 3048 3048 3048 3047 3047 3047 3046 3046 3045 3045 3044 3043 3043 3042 3041 3040 3039 3038 3036 3035 3033 3032 3030 3029 3027 3025 3023 3021 3019 3018 3017 3015 3014 3014 3013 3012 3012 3011 3011 3011 3011 3011 3011 3011 3012 3012 3014 3015 3017 3018 3019 3020 3021 3022 3024 3026 3027 3029 3030 3031 3032 3033 3035 3036 3037 3038 3039 3039 3040 3040 3040 3040 3041 3041 3042
3050 3049 3048 3048 3048 3048 3048 3047 3047 3047 3046 3046 3046 3046 3045 3045 3045 3045 3044 3044 3043 3042 3042 3041 3040 3039 3037 3036 3035 3033 3032 3030 3029 3027 3026 3024 3023 3021 3019 3018 3016 3015 3014 3013 3013 3012 3012 3012 3011 3011 3010 3010 3010 3010 3010 3012 3013 3015 3016 3017 3018 3018 3019 3021 3023 3025 3026 3027 3028 3029 3031 3032 3034 3034 3035 3035 3036 3036 3037 3037 3037 3038 3039 3040 3040
3049 3048 3047 3047 3047 3046 3046 3046 3046 3045 3045 3045 3045 3044 3044 3044 3044 3043 3043 3042 3042 3041 3040 3039 3038 3037 3036 3034 3033 3032 3030 3029 3027 3026 3025 3023 3022 3020 3019 3017 3016 3015 3014 3013 3013 3012 3012 3012 3011 3011 3011 3011 3010 3010 3010 3012 3013 3014 3015 3016 3017 3018 3019 3020 3022 3024 3025 3026 3028 3029 3030 3031 3031 3032 3032 3032 3033 3034 3034 3035 3036 3037 3038 3039 3039
3048 3047 3047 3046 3046 3045 3045 3045 3044 3044 3044 3043 3043 3043 3043 3043 3042 3042 3041 3041 3040 3040 3039 3038 3037 3036 3035 3033 3032 3030 3029 3028 3026 3025 3024 3022 3021 3020 3018 3017 3016 3015 3014 3014 3013 3013 3013 3012 3012 3012 3012 3012 3012 3012 3012 3012 3013 3014 3015 3015 3016 3017 3018 3020 3022 3023 3024 3026 3027 3028 3028 3029 3029 3029 3029 3030 3031 3032 3033 3034 3035 3036 3037 3037 3037
3047 3046 3046 3045 3045 3044 3044 3044 3043 3043 3042 3042 3042 3042 3041 3041 3041 3040 3040 3039 3039 3038 3037 3036 3035 3034 3033 3032 3031 3030 3028 3027 3026 3024 3023 3022 3020 3019 3018 3016 3015 3015 3014 3014 3013 3013 3012 3012 3012 3012 3012 3012 3013 3013 3013 3013 3013 3014 3015 3015 3016 3017 3018 3020 3021 3022 3023 3024 3025 3026 3027 3027 3028 3028 3029 3030 3031 3031 3032 3033 3034 3034 3035 3035 3036
3046 3046 3045 3045 3044 3044 3043 3043 3042 3042 3041 3041 3041 3040 3040 3040 3039 3039 3038 3038 3037 3037 3036 3035 3034 3033 3032 3031 3030 3029 3028 3027 3025 3024 3023 3021 3020 3018 3017 3016 3015 3014 3014 3013 3013 3012 3012 3012 3012 3011 3012 3012 3013 3013 3013 3013 3014 3014 3015 3016 3017 3018 3019 3020 3021 3021 3022 3023 3024 3025 3025 3026 3027 3028 3028 3029 3030 3030 3031 3032 3033 3033 3034 3034 3034
3045 3045 3045 3044 3043 3043 3043 3042 3042 3041 3041 3040 3040 3039 3038 3038 3038 3037 3037 3036 3036 3035 3034 3034 3033 3032 3031 3030 3029 3028 3027 3026 3025 3024 3023 3021 3020 3019 3017 3016 3015 3014 3014 3013 3013 3012 3012 3012 3011 3011 3011 3012 3013 3013 3013 3014 3015 3015 3016 3017 3018 3019 3020 3020 3020 3020 3021 3022 3023 3024 3025 3026 3026 3027 3027 3028 3029 3030 3030 3031 3032 3033 3033 3033 3033
3044 3044 3044 3043 3043 3043 3042 3042 3041 3041 3040 3039 3039 3038 3038 3037 3037 3036 3036 3035 3035 3034 3033 3033 3032 3031 3030 3029 3029 3028 3027 3026 3025 3024 3023 3022 3021 3019 3018 3017 3016 3015 3014 3014 3013 3013 3012 3012 3012 3013 3012 3013 3013 3013 3013 3014 3015 3016 3017 3017 3018 3019 3019 3019 3018 3019 3021 3022 3023 3024 3024 3025 3025 3026 3027 3028 3029 3029 3030 3031 3031 3032 3032 3032 3032
3043 3043 3043 3043 3043 3042 3042 3042 3041 3041 3040 3039 3039 3038 3037 3037 3036 3035 3035 3034 3034 3033 3033 3032 3031 3030 3029 3028 3028 3027 3026 3025 3024 3023 3022 3021 3020 3019 3018 3018 3017 3016 3015 3015 3014 3014 3013 3014 3014 3014 3014 3014 3014 3015 3015 3015 3016 3016 3017 3018 3018 3018 3018 3018 3018 3019 3020 3021 3022 3023 3023 3024 3025 3026 3027 3028 3028 3029 3029 3030 3030 3031 3031 3031 3031
3042 3042 3042 3042 3042 3042 3042 3041 3041 3040 3040 3039 3039 3038 3037 3037 3036 3035 3035 3034 3033 3033 3032 3031 3030 3029 3028 3027 3026 3025 3024 3024 3022 3021 3020 3020 3019 3018 3018 3017 3016 3016 3015 3015 3014 3014 3014 3014 3015 3015 3015 3016 3016 3016 3016 3016 3016 3017 3017 3017 3018 3018 3018 3018 3019 3019 3020 3021 3021 3022 3023 3024 3025 3026 3026 3027 3028 3028 3028 3029 3029 3029 3030 3030 3030
3041 3041 3042 3042 3041 3041 3041 3041 3041 3040 3040 3040 3039 3038 3038 3037 3036 3036 3035 3034 3033 3032 3031 3030 3030 3029 3028 3027 3026 3025 3024 3023 3022 3021 3020 3020 3019 3018 3018 3017 3017 3016 3015 3015 3014 3014 3014 3015 3015 3015 3015 3016 3016 3016 3016 3016 3016 3016 3016 3017 3017 3017 3018 3018 3019 3019 3020 3021 3021 3022 3023 3024 3025 3025 3026 3026 3027 3027 3027 3028 3028 3029 3029 3029 3029
3040 3040 3041 3041 3041 3041 3041 3041 3041 3040 3040 3040 3039 3039 3038 3038 3037 3036 3035 3034 3033 3033 3032 3031 3030 3029 3027 3026 3026 3025 3024 3023 3022 3021 3020 3020 3020 3019 3019 3018 3017 3017 3016 3016 3015 3014 3014 3015 3015 3015 3015 3015 3016 3016 3015 3015 3015 3016 3016 3016 3017 3017 3018 3018 3019 3019 3020 3021 3021 3022 3023 3024 3024 3025 3025 3026 3026 3027 3027 3027 3027 3028 3028 3028 3027